Back to catalog

FENGYUN 1C DEB

AlivePO
NORAD 31384·DEBRIS·🇨🇳 China

Launched May 10, 1999 from Taiyuan Satellite Launch Center

Loading…

Next Passes (next 24 hours)

TLE

FreshSource: Space-Track

Epoch: Sep 14, 2026, 08:25 UTC

1 31384U 99025BSQ 26257.35088002  .00004427  00000-0  17570-2 0  9991
2 31384  98.4767 203.7155 0432115   1.5513 148.8958 13.88506242968461

Track FENGYUN 1C DEB in real time with AllMySat

Download on the App Store